[TLELIST] Archives

 

[list_settings.list_name] Current TLEs

March 23rd 2022 PST

HST 1 20580U 90037B 22081.55258502 .00001714 00000-0 91502-4 0 9993 2 20580 28.4711 24.4478 0002650 176.6504 355.5743 15.10154599553062 ISS (ZARYA) 1 25544U 98067A 22082.25677686 .00005508 00000-0 10622-3 0 9993 2 25544 51.6439 42.1755 0004103 303.3368 199.3773 15.49505568331855 CXO 1 25867U 99040B 22083.42896185 .00000953 00000-0 00000+0 0 9994 2 25867 47.7106 240.9308 8715242 231.0696 0.5734 0.37808387 22633 ____________________________________________________________________ These 2-Line ...Continue Reading

[list_settings.list_name] Current TLEs

March 22nd 2022 PST

HST 1 20580U 90037B 22080.55997061 .00001634 00000-0 86754-4 0 9996 2 20580 28.4710 31.0206 0002684 166.0454 359.0769 15.10151077552916 ISS (ZARYA) 1 25544U 98067A 22081.40874163 .00005749 00000-0 11053-3 0 9994 2 25544 51.6440 46.3743 0004005 299.8554 149.2225 15.49495919331727 CXO 1 25867U 99040B 22083.42896185 .00000953 00000-0 00000+0 0 9994 2 25867 47.7106 240.9308 8715242 231.0696 0.5734 0.37808387 22633 ____________________________________________________________________ These 2-Line ...Continue Reading

[list_settings.list_name] Current TLEs

March 21st 2022 PST

HST 1 20580U 90037B 22080.22444913 .00001661 00000-0 88358-4 0 9995 2 20580 28.4710 33.2423 0002700 162.5166 334.9122 15.10150260553134 ISS (ZARYA) 1 25544U 98067A 22080.38444361 .00003372 00000-0 68227-4 0 9999 2 25544 51.6437 51.4452 0004091 296.4010 195.1971 15.49477553331566 CXO 1 25867U 99040B 22080.78473853 .00000987 00000-0 00000-0 0 9991 2 25867 47.7848 241.0817 8712416 231.0227 0.5252 0.37810437 11477 ____________________________________________________________________ These 2-Line ...Continue Reading

[list_settings.list_name] Current TLEs

March 20th 2022 PST

HST 1 20580U 90037B 22078.64435113 .00001731 00000-0 92592-4 0 9993 2 20580 28.4709 43.7051 0002740 146.1475 23.9878 15.10145426552624 ISS (ZARYA) 1 25544U 98067A 22079.20295220 .00003658 00000-0 73357-4 0 9993 2 25544 51.6432 57.2936 0004105 290.9967 85.7686 15.49468859331384 CXO 1 25867U 99040B 22080.78473853 .00000987 00000-0 00000-0 0 9991 2 25867 47.7848 241.0817 8712416 231.0227 0.5252 0.37810437 11477 ____________________________________________________________________ These 2-Line ...Continue Reading

[list_settings.list_name] Current TLEs

March 19th 2022 PST

HST 1 20580U 90037B 22077.38140368 .00001902 00000-0 10278-3 0 9998 2 20580 28.4707 52.0679 0002782 133.4012 357.0796 15.10141767552436 ISS (ZARYA) 1 25544U 98067A 22078.45139159 .00004998 00000-0 97246-4 0 9998 2 25544 51.6428 61.0139 0004102 288.4788 213.2679 15.49468020331264 CXO 1 25867U 99040B 22078.14093854 .00001067 00000-0 00000-0 0 9997 2 25867 47.8791 241.2785 8712300 230.9353 0.5805 0.37816697 11457 ____________________________________________________________________ These 2-Line ...Continue Reading

[list_settings.list_name] Current TLEs

March 18th 2022 PST

HST 1 20580U 90037B 22077.24166472 .00001916 00000-0 10361-3 0 9995 2 20580 28.4707 52.9931 0002789 132.0968 317.1847 15.10141283552671 ISS (ZARYA) 1 25544U 98067A 22077.21644935 .00007287 00000-0 13807-3 0 9998 2 25544 51.6426 67.1273 0003976 277.8962 170.7349 15.49462093331076 CXO 1 25867U 99040B 22078.14093854 .00001067 00000-0 00000-0 0 9997 2 25867 47.8791 241.2785 8712300 230.9353 0.5805 0.37816697 11457 ____________________________________________________________________ These 2-Line ...Continue Reading

[list_settings.list_name] Current TLEs

March 17th 2022 PST

HST 1 20580U 90037B 22076.23786831 .00001937 00000-0 10489-3 0 9994 2 20580 28.4708 59.6397 0002842 121.4165 259.9008 15.10138533552523 ISS (ZARYA) 1 25544U 98067A 22076.39108931 .00007927 00000-0 14953-3 0 9991 2 25544 51.6427 71.2129 0004059 276.6962 245.0107 15.49452235330943 CXO 1 25867U 99040B 22078.14093830 .00001067 00000-0 00000+0 0 9990 2 25867 47.8789 241.2784 8712301 230.9354 0.5805 0.37816229 22616 ____________________________________________________________________ These 2-Line ...Continue Reading

[list_settings.list_name] Current TLEs

March 16th 2022 PST

HST 1 20580U 90037B 22074.67611708 .00002200 00000-0 12066-3 0 9997 2 20580 28.4706 69.9811 0002859 105.7906 48.2434 15.10132874552021 ISS (ZARYA) 1 25544U 98067A 22075.35511171 .00008172 00000-0 15398-3 0 9997 2 25544 51.6427 76.3415 0004117 271.9379 227.2768 15.49435983330780 CXO 1 25867U 99040B 22075.49450985 .00001076 00000-0 00000-0 0 9994 2 25867 47.9818 241.4973 8711145 230.8162 0.3563 0.37813216 11444 ____________________________________________________________________ These 2-Line ...Continue Reading

[list_settings.list_name] Current TLEs

March 15th 2022 PST

HST 1 20580U 90037B 22073.75421521 .00002573 00000-0 14297-3 0 9998 2 20580 28.4705 76.0857 0002861 96.6440 75.5543 15.10129613551887 ISS (ZARYA) 1 25544U 98067A 22074.38833769 .00007903 00000-0 14928-3 0 9998 2 25544 51.6424 81.1281 0004103 267.5745 235.4693 15.49418269330635 CXO 1 25867U 99040B 22075.49450985 .00001076 00000-0 00000-0 0 9994 2 25867 47.9818 241.4973 8711145 230.8162 0.3563 0.37813216 11444 ____________________________________________________________________ These 2-Line ...Continue Reading

[list_settings.list_name] Current TLEs

March 14th 2022 PST

HST 1 20580U 90037B 22072.76216014 .00002409 00000-0 13320-3 0 9991 2 20580 28.4702 82.6546 0002816 87.1631 81.0751 15.10125082551732 ISS (ZARYA) 1 25544U 98067A 22073.42125965 .00007881 00000-0 14896-3 0 9993 2 25544 51.6424 85.9164 0004173 264.6789 240.5595 15.49402004330481 CXO 1 25867U 99040B 22075.49450985 .00001076 00000-0 00000-0 0 9994 2 25867 47.9818 241.4973 8711145 230.8162 0.3563 0.37813216 11444 ____________________________________________________________________ These 2-Line ...Continue Reading
  • This mailing list is a public mailing list - anyone may join or leave, at any time.
  • This mailing list is announce-only.

International Space Station (ISS) / Hubble Space Telescope (HST) / Chandra X-Ray Observatory Orbital Data via EMAIL

Privacy Policy:

Private list